Hobart, OK

4:23 AM CST on January 16, 2018 (GMT -0600)
Hobart Municipal

Weather History for KHBR - January, 2013

Change the Weather History Date:

Sunday, January 27, 2013

  Actual Average Record
Temperature  
Mean Temperature 60 °F -  
Max Temperature 73 °F 48 °F 75 °F (2015)
Min Temperature 48 °F 27 °F 10 °F (2009)
Degree Days  
Heating Degree Days 4    
Growing Degree Days 10 (Base 50)    
Moisture  
Dew Point 51 °F    
Average Humidity 84    
Maximum Humidity 100    
Minimum Humidity 46    
Precipitation  
Precipitation 0.00 in - - ()
Sea Level Pressure  
Sea Level Pressure 29.89 in    
Wind  
Wind Speed 19 mph (South)    
Max Wind Speed 24 mph    
Max Gust Speed 32 mph    
Visibility 5 miles    
Events Fog    
Averages and records for this station are not official NWS values.
T = Trace of Precipitation, MM = Missing Value Source: NWS Daily Summary

Daily Weather History Graph

Daily Weather History Graph

Search for Another Location

Airport or City:

Trip Planner

Search our weather history database for the weather conditions in past years. The results will help you decide how hot, cold, wet, or windy it might be!

Date:

Astronomy

Jan. 27, 2013 Rise Set
Actual Time 7:38 AM CST 6:00 PM CST
Civil Twilight 7:11 AM CST 6:27 PM CST
Nautical Twilight 6:40 AM CST 6:57 PM CST
Astronomical Twilight 6:10 AM CST 7:27 PM CST
Moon 6:51 PM CST (1/27) 7:35 AM CST (1/27)
Length of Visible Light 11h 15m
Length of Day
10h 22m
Full, 100% of the Moon is Illuminated
Jan 27
Full
Feb 3
Last Quarter
Feb 10
New
Feb 17
First Quarter
Feb 25
Full

Hourly Weather History & Observations

Time (CST) Temp. Dew Point Humidity Pressure Visibility Wind Dir Wind Speed Gust Speed Precip Events Conditions
12:30 AM 48.2 °F 46.4 °F 93% 29.99 in 4.0 mi South 19.6 mph - N/A   Mostly Cloudy
12:39 AM 48.2 °F 46.4 °F 93% 30.00 in 4.0 mi South 15.0 mph - N/A   Mostly Cloudy
12:53 AM 48.9 °F 46.9 °F 93% 30.01 in 4.0 mi SSW 15.0 mph - N/A   Overcast
1:29 AM 48.2 °F 46.4 °F 93% 29.99 in 2.5 mi South 15.0 mph - N/A   Overcast
1:53 AM 48.0 °F 46.9 °F 96% 29.99 in 1.8 mi South 13.8 mph - N/A   Overcast
2:20 AM 48.2 °F 48.2 °F 100% 29.99 in 0.8 mi SSW 11.5 mph - N/A   Overcast
2:53 AM 48.0 °F 48.0 °F 100% 29.97 in 0.5 mi South 13.8 mph - N/A Fog Fog
3:53 AM 48.9 °F 48.9 °F 100% 29.96 in 0.2 mi South 18.4 mph - N/A Fog Fog
4:53 AM 50.0 °F 50.0 °F 100% 29.94 in 0.5 mi South 18.4 mph - N/A Fog Fog
5:53 AM 50.0 °F 50.0 °F 100% 29.91 in 0.5 mi South 23.0 mph - N/A Fog Fog
6:53 AM 50.0 °F 50.0 °F 100% 29.92 in 0.5 mi South 24.2 mph 32.2 mph N/A Fog Fog
7:10 AM 51.8 °F 51.8 °F 100% 29.92 in 1.0 mi South 23.0 mph 31.1 mph N/A   Mist
7:18 AM 51.8 °F 51.8 °F 100% 29.92 in 0.8 mi South 24.2 mph 29.9 mph N/A   Overcast
7:29 AM 51.8 °F 51.8 °F 100% 29.92 in 1.0 mi South 24.2 mph 31.1 mph N/A   Overcast
7:53 AM 51.1 °F 51.1 °F 100% 29.91 in 0.8 mi South 23.0 mph 28.8 mph N/A   Overcast
8:02 AM 51.8 °F 51.8 °F 100% 29.92 in 1.0 mi South 21.9 mph 31.1 mph N/A   Overcast
8:53 AM 53.1 °F 53.1 °F 100% 29.92 in 1.8 mi South 21.9 mph 28.8 mph N/A   Overcast
9:05 AM 53.6 °F 53.6 °F 100% 29.92 in 2.0 mi South 20.7 mph - N/A   Overcast
9:40 AM 53.6 °F 53.6 °F 100% 29.92 in 3.0 mi South 20.7 mph - N/A   Overcast
9:53 AM 55.9 °F 54.0 °F 93% 29.91 in 4.0 mi South 21.9 mph 29.9 mph N/A   Overcast
10:36 AM 59.0 °F 53.6 °F 82% 29.92 in 7.0 mi South 23.0 mph 27.6 mph N/A   Scattered Clouds
10:53 AM 60.1 °F 54.0 °F 80% 29.91 in 7.0 mi South 20.7 mph - N/A   Partly Cloudy
11:53 AM 63.0 °F 54.0 °F 72% 29.90 in 10.0 mi SSW 19.6 mph - N/A   Mostly Cloudy
12:53 PM 68.0 °F 54.0 °F 61% 29.84 in 10.0 mi SSW 21.9 mph - N/A   Partly Cloudy
1:53 PM 71.1 °F 54.0 °F 55% 29.80 in 10.0 mi SSW 24.2 mph 27.6 mph N/A   Clear
2:53 PM 73.0 °F 53.1 °F 49% 29.79 in 10.0 mi SSW 21.9 mph - N/A   Clear
3:53 PM 73.9 °F 52.0 °F 46% 29.77 in 10.0 mi South 23.0 mph 28.8 mph N/A   Clear
4:53 PM 73.0 °F 51.1 °F 46% 29.75 in 10.0 mi South 16.1 mph - N/A   Clear
5:53 PM 70.0 °F 53.1 °F 55% 29.77 in 10.0 mi South 16.1 mph - N/A   Mostly Cloudy
6:53 PM 66.9 °F 53.1 °F 61% 29.79 in 10.0 mi SSW 15.0 mph - N/A   Scattered Clouds
7:53 PM 66.9 °F 53.1 °F 61% 29.81 in 10.0 mi SSW 19.6 mph - N/A   Clear
8:53 PM 63.0 °F 52.0 °F 67% 29.82 in 10.0 mi SSW 16.1 mph - N/A   Clear
9:53 PM 61.0 °F 52.0 °F 72% 29.83 in 10.0 mi SSW 12.7 mph - N/A   Clear
10:53 PM 60.1 °F 52.0 °F 75% 29.83 in 10.0 mi SSW 11.5 mph - N/A   Overcast
11:53 PM 55.4 °F 51.8 °F 88% 29.86 in 10.0 mi SSW 13.8 mph - N/A   Clear